SCP
0 0 0 0 0 0 0 0 0 0 0 0 0 0 0 0 0 0 0 0 0 0
0 0 0 0 0 0 0 0 0 0 0 0 0 0 0 0 0 0 0 0 0 0
0 0 0 0 0 0 0 0 0 0 0 0 0 0 0 0 0 0 0 0 0 0
0 0 0 0 0 0 0 0 0 0 0 0 0 0 0 0 0 0 0 0 0 0
0 0 0 0 0 0 0 0 0 0 0 0 0 0 0 0 0 0 0 0 0 0
0 0 0 0 0 0 0 0 0 0 0 0 0 0 0 0 0 0 0 0 0 0
0 0 0 0 0 0 0 0 0 0 0 0 0 0 0 0 0 0 0 0 0 0
0 0 0 0 0 0 0 0 0 0 0 0 0 0 0 0 0 0 0 0 0 0
0 0 0 0 0 0 0 0 0 0 0 0 0 0 0 0 0 0 0 0 0 0
0 0 0 0 0 0 0 0 0 0 0 0 0 0 0 0 0 0 0 0 0 0
0 0 0 0 0 0 0 0 0 0 0 0 0 0 0 0 0 0 0 0 0 0
0 0 0 0 0 0 0 0 0 0 0 0 0 0 0 0 0 0 0 0 0 0
0 0 0 0 0 0 0 0 0 0 0 0 0 0 0 0 0 0 0 0 0 0
0 0 0 0 0 0 0 0 0 0 0 0 0 0 0 0 0 0 0 0 0 0
Wind_Speed_500mb
77 77 72 73 78 77 70 62 54 45 39 32 25 18 13 9 5 4 5 6 7 8
78 79 76 80 81 76 68 60 52 46 39 32 26 18 13 6 3 2 2 2 3 5
75 78 81 84 82 74 66 59 53 47 40 34 26 19 13 9 6 5 4 2 4 5
81 81 85 86 80 73 66 59 53 48 42 35 29 22 15 11 9 8 8 6 4 7
83 86 90 88 82 73 65 59 55 51 44 38 31 24 18 14 13 12 10 7 7 11
89 95 97 91 82 75 70 66 61 54 48 43 37 29 23 19 17 15 12 12 14 16
97 101 100 93 87 81 75 69 63 57 51 46 40 33 27 24 21 20 18 19 20 20
98 100 100 97 92 85 80 73 65 60 56 51 44 35 32 28 24 25 24 24 26 26
101 104 103 98 94 89 83 76 69 64 58 54 44 39 38 33 30 31 30 30 30 30
105 106 105 101 96 92 85 77 71 66 60 52 48 44 44 40 37 37 36 35 34 34
106 106 104 100 96 91 85 79 73 66 56 57 47 53 53 49 45 44 42 42 39 40
107 104 101 101 97 92 86 80 72 64 59 63 60 61 63 56 53 49 50 50 47 44
104 100 101 98 94 90 85 71 74 65 66 68 67 69 67 59 60 57 60 58 52 52
94 96 93 91 92 89 77 75 68 75 62 84 63 75 68 65 67 66 65 62 61 60
Wind_Direction_500mb
211 207 204 212 202 193 189 185 181 182 182 182 176 165 148 135 109 67 41 23 7 353
208 208 207 203 196 193 189 186 184 183 184 180 172 164 158 171 161 120 50 26 336 322
211 209 207 200 195 192 189 189 186 185 185 182 176 177 186 187 177 162 168 211 259 303
212 209 205 199 195 194 193 192 192 193 190 187 186 190 193 192 184 183 189 198 251 300
214 207 203 200 198 196 196 196 198 194 192 192 196 199 201 201 195 199 200 220 261 282
211 205 203 201 200 199 199 200 198 198 199 201 203 203 202 204 203 211 218 240 256 272
212 207 205 203 203 203 203 204 204 202 204 205 207 208 211 212 213 219 227 243 257 269
214 211 209 206 206 206 206 206 206 206 207 209 212 217 225 222 222 227 235 245 258 270
214 213 211 210 209 208 208 207 208 209 213 216 219 226 228 229 230 233 239 249 259 271
215 213 213 213 212 211 211 211 211 212 215 222 229 241 234 234 235 238 244 251 260 271
216 215 214 214 215 213 214 214 216 219 222 235 231 243 241 238 239 242 247 253 260 269
217 216 217 217 216 215 216 217 224 223 231 233 244 242 242 240 244 245 251 255 258 268
220 220 222 222 219 219 219 231 223 231 234 235 249 243 240 244 252 253 255 259 263 269
225 225 226 225 223 222 222 228 231 234 235 240 255 240 242 249 256 260 262 265 267 270
Wind_Speed_850mb
77 77 72 73 78 77 70 62 54 45 39 32 25 18 13 9 5 4 5 6 7 8
78 79 76 80 81 76 68 60 52 46 39 32 26 18 13 6 3 2 2 2 3 5
75 78 81 84 82 74 66 59 53 47 40 34 26 19 13 9 6 5 4 2 4 5
81 81 85 86 80 73 66 59 53 48 42 35 29 22 15 11 9 8 8 6 4 7
83 86 90 88 82 73 65 59 55 51 44 38 31 24 18 14 13 12 10 7 7 11
89 95 97 91 82 75 70 66 61 54 48 43 37 29 23 19 17 15 12 12 14 16
97 101 100 93 87 81 75 69 63 57 51 46 40 33 27 24 21 20 18 19 20 20
98 100 100 97 92 85 80 73 65 60 56 51 44 35 32 28 24 25 24 24 26 26
101 104 103 98 94 89 83 76 69 64 58 54 44 39 38 33 30 31 30 30 30 30
105 106 105 101 96 92 85 77 71 66 60 52 48 44 44 40 37 37 36 35 34 34
106 106 104 100 96 91 85 79 73 66 56 57 47 53 53 49 45 44 42 42 39 40
107 104 101 101 97 92 86 80 72 64 59 63 60 61 63 56 53 49 50 50 47 44
104 100 101 98 94 90 85 71 74 65 66 68 67 69 67 59 60 57 60 58 52 52
94 96 93 91 92 89 77 75 68 75 62 84 63 75 68 65 67 66 65 62 61 60
Wind_Direction_850mb
211 207 204 212 202 193 189 185 181 182 182 182 176 165 148 135 109 67 41 23 7 353
208 208 207 203 196 193 189 186 184 183 184 180 172 164 158 171 161 120 50 26 336 322
211 209 207 200 195 192 189 189 186 185 185 182 176 177 186 187 177 162 168 211 259 303
212 209 205 199 195 194 193 192 192 193 190 187 186 190 193 192 184 183 189 198 251 300
214 207 203 200 198 196 196 196 198 194 192 192 196 199 201 201 195 199 200 220 261 282
211 205 203 201 200 199 199 200 198 198 199 201 203 203 202 204 203 211 218 240 256 272
212 207 205 203 203 203 203 204 204 202 204 205 207 208 211 212 213 219 227 243 257 269
214 211 209 206 206 206 206 206 206 206 207 209 212 217 225 222 222 227 235 245 258 270
214 213 211 210 209 208 208 207 208 209 213 216 219 226 228 229 230 233 239 249 259 271
215 213 213 213 212 211 211 211 211 212 215 222 229 241 234 234 235 238 244 251 260 271
216 215 214 214 215 213 214 214 216 219 222 235 231 243 241 238 239 242 247 253 260 269
217 216 217 217 216 215 216 217 224 223 231 233 244 242 242 240 244 245 251 255 258 268
220 220 222 222 219 219 219 231 223 231 234 235 249 243 240 244 252 253 255 259 263 269
225 225 226 225 223 222 222 228 231 234 235 240 255 240 242 249 256 260 262 265 267 270